Location: Austin
(30.3000°N, 97.7500°W)
Time: 02:12:51
(UTC-05:00)

USA 32 - Pass Details

Date: 01 October 2024
Orbit: 777 x 779 km, 85.0° (Epoch: 06 October)

Event Time Altitude Azimuth Distance (km) Brightness Sun altitude
Rises 20:19:02 0° 353° (N) 3,265 7.4 -14.5°
Reaches altitude 10° 20:21:24 10° 351° (N) 2,334 6.7 -15.0°
Maximum altitude 20:26:36 69° 269° (W) 832 4.4 -16.2°
Drops below altitude 10° 20:31:46 10° 187° (S) 2,321 6.5 -17.3°
Sets 20:34:07 0° 184° (S) 3,245 7.2 -17.8°
